sat.trackr.live / text

‹ back to catalog

GEOSCAN 4 (RS92S4)

NORAD 64892 · 2025-155S

PAYLOAD ACTIVE UNKNOWN

§ Identity

Operator
Country
CIS
Launch date
2025-07-25
Launch site
VOSTO
Launch vehicle
Mass (kg)
RCS (m²)

Purposes: comms

External: N2YO · Heavens-Above · Gunter

§ Orbital elements

Epoch: 2026-09-19T22:25:05.382048Z

Period
93.76 min
Inclination
97.4661°
Eccentricity
0.0005296
Mean motion
15.35818223 rev/d
Perigee alt
454.9 km
Apogee alt
462.1 km
Semi-major
6,836.6 km
B*
3.3787e-4
RAAN
233.4394°
Arg perigee
179.3553°
Mean anomaly
180.7698°
Rev number
9,535

§ Raw data

GEOSCAN 4 (RS92S4)1 64892U 25155S   26262.93409007  .00011702  00000+0  33787-3 0  99982 64892  97.4661 233.4394 0005296 179.3553 180.7698 15.35818223 95356

JSON: /api/v1/satellites/64892 · /tle

For live sub-satellite position, see the globe view (requires WebGL).

§ Visibility from observer

Set your observer location to see the next 7 days of passes ≥ 10°. The values pass through the URL so the page stays shareable.

No JS? Fill the form by hand. The geolocation button needs JavaScript.

§ Radio — SatNOGS DB

ModeDescriptionDownlinkUplink
GFSK Mode U - GFSK9k6 - AX.25 Beacon and Ham Payload (Geoscan framing) 435.335 MHz

1 transmitter · refreshed weekly from db.satnogs.org